STARLINK-3878, 52479

Orbit data source: Space-Track

STARLINK-3878, 52479 is a payload satellite owned by SpaceX/Seattle (US) in LEO that was launched on Fri, 06 May 2022 UTC via an FALCON 9 launch vehicle from the Air Force Eastern Test Range (AFETR). Payload-class satellites include a variety of spacecraft equipped with specific instruments for various scientific and technological missions. These include communications satellites like Starlink; space stations such as the ISS; scientific satellites like the Hubble; Earth observation satellites from companies like Planet Labs, Umbra, and HawkEye 360; GPS; miniature CubeSats for education and research; and military/defense satellites.

Loading next visibility...
Identifier
52479, 2022-049AE
Orbit
LEO
Country
Flag of USUS
Related business
Manufacturer
SpaceX/Seattle
Mission
Operational Commercial Communications
Bus & Motor
STARLINK, Unknown motor
Mass
297 kg wet, ~220 kg dry
Launch date (UTC)
2022-05-06 (4 years ago)
Launch vehicle
FALCON 9
Launch site
Air Force Eastern Test Range (AFETR)
Object type
Payload
Rocket body
Debris
Shape & HBR
Box + 1 Pan, 10.1 m
Radar Cross Section
13.562 m², Large (>1 m²)

Expand to show TLE details & history
Last TLE update: 19 hours ago

TLE from 19 hours ago
0 STARLINK-3878
1 52479U 22049AE  25346.67432089 -.00000462  00000-0 -10971-4 0  9999
2 52479  53.2181  79.7462 0001415  94.0803 266.0351 15.08831674200490
Epoch: 2025-12-12T16:11Z
TLE epoch observation values (Epoch: 2025-12-12T16:11:01.324Z)
Latitude
-0.00004°
Longitude
115.3781°
Altitude
540.734 km
Speed
7.593 km/s
True Right ascension
05h 18m 59s
True Declination
0° 00' 00"
Sunlit
Object was in full shadow at epoch
Visualization orbit readout
Latitude
Unknown
Longitude
Unknown
Altitude
Unknown
Speed
Unknown
Apparent Right ascension
Unknown
Apparent Declination
Unknown
Sunlit
N/A
Visualization observer readout
Local Sidereal Time
09:16:43
Azimuth
Unknown
Elevation
Unknown
Doppler factor
Unknown
Orbital elements
Apogee altitude
540.993 km
Perigee altitude
539.035 km
Semi-major axis
6,918.151 km
Eccentricity
0.00014
Inclination
53.2181°
RAAN
79.7462°
Arg. of periapsis
94.0803°
True anomaly
266.01892°
Mean anomaly
266.0351°
Eccentric anomaly
266.02701°
Mean motion
3.77188 °/min
Orbital period
95.44 mins
BSTAR
-0.000010971
Loading maneuver chart data...
Computing Atmospheric mass density...
Loading historical data...
Loading historical data...
Loading historical data...
Loading historical data...
Loading historical data...
Loading historical data...
Loading historical data...

Documentation

Showing up to 5 results
|